This is the latest recevied weather packets stored in our database for station/object IZ1UQG-N2. If no packets are shown the sender has not sent any weather packets the latest 1 day(s).
| Time | Temp. | Humidity | Pressure | Rain* | Wind** | Luminosity | Snow |
|---|---|---|---|---|---|---|---|
| 1836274682 | 17.78° C | 89% | 1024.6 hPa | 0 mm | 0.89 m/s, 280° | 0 W/m² | - |
| 1836274503 | 17.78° C | 89% | 1024.6 hPa | 0 mm | 0.89 m/s, 297° | 0 W/m² | - |
| 1836274472 | 17.78° C | 89% | 1024.5 hPa | 0 mm | 0.45 m/s, 270° | 0 W/m² | - |
| 1836274322 | 17.78° C | 89% | 1024.6 hPa | 0 mm | 0.89 m/s, 308° | 0 W/m² | - |
| 1836274293 | 17.78° C | 89% | 1024.5 hPa | 0 mm | 0.45 m/s, 270° | 0 W/m² | - |
| 1836274143 | 17.78° C | 89% | 1024.6 hPa | 0 mm | 0.89 m/s, 319° | 0 W/m² | - |
| 1836274113 | 17.78° C | 89% | 1024.6 hPa | 0 mm | 0.89 m/s, 274° | 0 W/m² | - |
| 1836273963 | 17.78° C | 89% | 1024.7 hPa | 0 mm | 1.34 m/s, 324° | 0 W/m² | - |
| 1778032909 | 11.67° C | 92% | 1009 hPa | 0 mm | 0.45 m/s, 338° | 0 W/m² | - |
| 1778032849 | 11.67° C | 92% | 1009 hPa | 0 mm | 0.45 m/s, 337° | 0 W/m² | - |
| 1778032809 | 11.67° C | 92% | 1009 hPa | 0 mm | 0.45 m/s, 337° | 0 W/m² | - |
| 1778032791 | 11.67° C | 92% | 1009 hPa | 0 mm | 0.89 m/s, 336° | 0 W/m² | - |
| 1778032730 | 11.67° C | 92% | 1008.9 hPa | 0 mm | 0.89 m/s, 335° | 0 W/m² | - |
| 1778032670 | 11.67° C | 91% | 1009 hPa | 0 mm | 0.45 m/s, 333° | 0 W/m² | - |
| 1778032628 | 11.67° C | 91% | 1009 hPa | 0 mm | 0.45 m/s, 333° | 0 W/m² | - |
| 1778032610 | 11.67° C | 91% | 1009 hPa | 0 mm | 0.45 m/s, 331° | 0 W/m² | - |
| 1778032550 | 11.67° C | 91% | 1008.9 hPa | 0 mm | 0.45 m/s, 330° | 0 W/m² | - |
| 1778032490 | 11.67° C | 91% | 1008.9 hPa | 0 mm | 0.45 m/s, 332° | 0 W/m² | - |
| 1778032447 | 11.67° C | 91% | 1008.9 hPa | 0 mm | 0.45 m/s, 332° | 0 W/m² | - |
| 1778032430 | 11.67° C | 91% | 1008.9 hPa | 0 mm | 0.45 m/s, 332° | 0 W/m² | - |
| 1778032373 | 11.67° C | 91% | 1009 hPa | 0 mm | 0.45 m/s, 333° | 0 W/m² | - |
| 1778032310 | 11.67° C | 91% | 1008.9 hPa | 0 mm | 0.45 m/s, 332° | 0 W/m² | - |
| 1778032268 | 11.67° C | 91% | 1008.9 hPa | 0 mm | 0.45 m/s, 332° | 0 W/m² | - |
| 1778032250 | 11.67° C | 91% | 1008.9 hPa | 0 mm | 0.45 m/s, 332° | 0 W/m² | - |
| 1778032190 | 12.22° C | 91% | 1009 hPa | 0 mm | 0.45 m/s, 333° | 0 W/m² | - |
* Rain latest hour (hover to see other rain measurements)
** Current wind speed in m/s (hover to see current wind gust speed)